Home > Weather > Osaka > Past weeks

Flag for Japan Weather for the Past 2 Weeks in Osaka, Japan

Now
46 °F

Passing clouds.


Feels Like: 39 °F
Forecast: 38 / 48 °F
Wind: 18 mph from West

Location: Kansai International Airport

Current Time: Feb 9, 2016 at 12:01:08 AM

Latest Report: Feb 8, 2016 at 11:30 PM


Visibility: N/A

Pressure: 30.04 "Hg

Humidity: 46%

Dew point: 27 °F

Location of OsakaLocation

Historic Weather in Osaka — Graph

°F

Osaka Temperature Yesterday

Maximum temperature yesterday: 48 °F (at 2:00 PM)
Minimum temperature yesterday: 32 °F (at 7:00 AM)
Average temperature yesterday: 42 °F

High & Low Weather Summary for the Past Weeks

 TemperatureHumidityPressure
High52 °F (Jan 28, 12:00 PM)100% (Jan 29, 9:00 AM)30.42 "Hg (Jan 29, 9:00 AM)
Low30 °F (Jan 24, 11:00 PM)32% (Feb 8, 2:00 PM)29.92 "Hg (Jan 29, 10:30 PM)
Average44 °F64%30.16 "Hg
* Reported Jan 24 11:00 PM — Feb 8 11:00 PM, Osaka, Weather by CustomWeather, © 2016

Note: Actual official high and low records may vary slightly from our data, if they occured in-between our weather recording intervals... More about our weather records

Advertising

Osaka Weather History for the Previous 24 Hours

 ConditionsComfort  
Time TempWeatherWind HumidityBarometerVisibility
11:00 PM
Mon, Feb 8
46 °FPassing clouds.17 mph50%30.04 "HgN/A
10:30 PM46 °FPassing clouds.20 mph50%30.04 "HgN/A
10:00 PM46 °FPassing clouds.20 mph50%30.04 "HgN/A
9:30 PM46 °FPassing clouds.16 mph46%30.04 "HgN/A
9:00 PM46 °FPassing clouds.16 mph53%30.04 "HgN/A
8:30 PM46 °FPassing clouds.13 mph57%30.04 "HgN/A
8:00 PM46 °FPassing clouds.10 mph57%30.04 "HgN/A
7:30 PM46 °FPassing clouds.9 mph53%30.04 "HgN/A
7:00 PM46 °FPassing clouds.12 mph57%30.04 "HgN/A
6:30 PM46 °FPassing clouds.10 mph57%30.04 "HgN/A
6:00 PM46 °FPassing clouds.12 mph53%30.04 "HgN/A
5:30 PM46 °FPassing clouds.13 mph53%30.04 "HgN/A
5:00 PM46 °FPassing clouds.13 mph46%30.01 "HgN/A
4:30 PM48 °FPassing clouds.10 mph43%30.01 "HgN/A
4:00 PM46 °FPassing clouds.7 mph40%30.01 "HgN/A
3:30 PM46 °FPassing clouds.5 mph37%30.01 "HgN/A
3:00 PM48 °FPassing clouds.5 mph34%30.01 "HgN/A
2:30 PM46 °FPassing clouds.6 mph34%30.01 "HgN/A
2:00 PM48 °FPassing clouds.3 mph32%30.04 "HgN/A
1:30 PM46 °FPassing clouds.6 mph34%30.04 "HgN/A
1:00 PM45 °FPassing clouds.8 mph42%30.04 "HgN/A
12:30 PM45 °FPassing clouds.6 mph42%30.07 "HgN/A
12:00 PM45 °FPassing clouds.7 mph46%30.07 "HgN/A
11:30 AM43 °FPassing clouds.8 mph53%30.09 "HgN/A
11:00 AM45 °FPassing clouds.6 mph49%30.09 "HgN/A
10:00 AM41 °FPassing clouds.8 mph66%30.09 "HgN/A
9:30 AM41 °FPassing clouds.8 mph61%30.09 "HgN/A
8:30 AM39 °FPassing clouds.8 mph70%30.12 "HgN/A
8:00 AM37 °FPassing clouds.8 mph70%30.12 "HgN/A
7:30 AM36 °FPassing clouds.8 mph70%30.09 "HgN/A
7:00 AM32 °FPassing clouds.6 mph80%30.09 "HgN/A
6:30 AM36 °FPassing clouds.5 mph70%30.09 "HgN/A
6:00 AM34 °FPassing clouds.6 mph70%30.09 "HgN/A
5:30 AM36 °FPassing clouds.8 mph70%30.09 "HgN/A
5:00 AM37 °FPassing clouds.9 mph70%30.09 "HgN/A
4:30 AM37 °FPassing clouds.10 mph70%30.09 "HgN/A
4:00 AM37 °FPassing clouds.8 mph70%30.09 "HgN/A
3:30 AM37 °FPassing clouds.8 mph70%30.09 "HgN/A
3:00 AM36 °FPassing clouds.9 mph65%30.09 "HgN/A
2:30 AM37 °FPassing clouds.9 mph60%30.12 "HgN/A
2:00 AM37 °FPassing clouds.10 mph60%30.12 "HgN/A
1:30 AM39 °FPassing clouds.9 mph56%30.12 "HgN/A
1:00 AM39 °FPassing clouds.10 mph52%30.12 "HgN/A
12:30 AM39 °FPassing clouds.12 mph56%30.12 "HgN/A
12:00 AM39 °FPassing clouds.10 mph56%30.12 "HgN/A
Weather by CustomWeather, © 2016

See weather overviewHow to use our weather pages